"2007/01/01",  4.6,  8.5, -1.2
"2007/01/02",  6.5,  9.7,  2.6
"2007/01/03",  7.5,  8.6,  5.6
"2007/01/04",  5.8,  8.6,  3.4
"2007/01/05",  5.6,  8.3,  3.2
"2007/01/06",  5.6,  8.3,  3.7
"2007/01/07",  6.9,  9.9,  4.3
"2007/01/08",  6.5, 10.2,  4.0
"2007/01/09",  4.9,  8.8,  1.9
"2007/01/10",  5.2, 11.0, -1.1
"2007/01/11",  5.0,  9.9,  0.8
"2007/01/12",  4.4,  6.5,  2.3
"2007/01/13",  4.6,  9.8, -0.6
"2007/01/14",  3.1,  6.8, -1.2
"2007/01/15",  3.7,  7.8, -1.0
"2007/01/16",  6.1, 10.8,  1.9
"2007/01/17",  6.0,  8.0,  4.3
"2007/01/18",  6.5, 10.2,  3.6
"2007/01/19",  5.3,  8.3,  2.6
"2007/01/20",  4.0,  6.0,  1.3
"2007/01/21",  5.6,  8.0,  3.4
"2007/01/22",  6.1, 10.5,  2.4
"2007/01/23",  5.7,  9.4,  1.7
"2007/01/24",  5.2,  9.0,  1.8
"2007/01/25",  4.7, 10.1, -1.3
"2007/01/26",  5.1,  9.9, -0.7
"2007/01/27",  8.2, 14.2,  3.6
"2007/01/28",  6.4, 10.4,  2.4
"2007/01/29",  6.1,  7.5,  3.9
"2007/01/30",  6.6, 11.0,  2.7
"2007/01/31",  7.6, 13.5,  3.0
"2007/02/01",  7.0, 11.8,  2.1
"2007/02/02",  4.5,  8.2,  0.8
"2007/02/03",  5.4, 10.3,  0.1
"2007/02/04",  6.1, 10.3,  0.1
"2007/02/05",  5.8, 11.5,  0.0
"2007/02/06",  8.5, 14.3,  1.9
"2007/02/07",  7.6, 11.6,  2.4
"2007/02/08",  5.6, 10.4, -0.5
"2007/02/09",  8.3, 12.1,  5.2
"2007/02/10",  8.4, 10.6,  5.3
"2007/02/11",  6.9, 10.6,  2.9
"2007/02/12",  6.6, 10.8,  3.0
"2007/02/13",  6.8, 10.3,  4.1
"2007/02/14", 10.0, 17.8,  6.4
"2007/02/15",  8.3, 12.2,  3.2
"2007/02/16",  6.4, 11.4,  2.9
"2007/02/17",  5.6,  8.8,  0.3
"2007/02/18",  5.8,  7.0,  3.6
"2007/02/19",  6.7, 10.7,  1.2
"2007/02/20",  5.8,  7.4,  4.3
"2007/02/21",  7.1, 11.1,  4.4
"2007/02/22",  8.2, 14.4,  1.6
"2007/02/23",  9.3, 10.8,  7.9
"2007/02/24",  5.0,  8.3,  1.0
"2007/02/25",  2.7,  5.3, -0.2
"2007/02/26",  4.8,  8.1,  1.6
"2007/02/27",  7.2, 14.3, -0.2
"2007/02/28",  8.2, 11.7,  4.8
"2007/03/01",  6.2, 12.0,  0.3
"2007/03/02",  6.7, 11.4,  1.8
"2007/03/03",  9.3, 13.8,  5.2
"2007/03/04", 11.6, 16.9,  8.8
"2007/03/05", 15.5, 19.8, 10.3
"2007/03/06", 10.7, 16.7,  5.4
"2007/03/07",  6.4,  9.8,  4.3
"2007/03/08",  6.2, 11.5,  0.8
"2007/03/09",  6.4,  8.8,  2.9
"2007/03/10",  8.6, 12.1,  4.0
"2007/03/11",  8.4, 11.2,  3.8
"2007/03/12",  5.8, 10.5,  0.8
"2007/03/13",  6.9, 12.2,  2.4
"2007/03/14",  6.5, 11.8,  2.1
"2007/03/15",  6.8, 10.9,  3.2
"2007/03/16",  6.6,  8.9,  4.4
"2007/03/17",  5.3,  7.6,  2.3
"2007/03/18",  4.9,  9.9,  0.4
"2007/03/19",  5.4, 11.2, -1.7
"2007/03/20",  6.3, 10.4,  2.2
"2007/03/21",  7.0, 10.6,  3.4
"2007/03/22",  9.4, 15.3,  5.3
"2007/03/23",  9.6, 13.7,  6.1
"2007/03/24", 12.3, 17.0,  7.2
"2007/03/25", 14.6, 17.0, 11.6
"2007/03/26", 12.6, 18.2,  6.9
"2007/03/27", 11.3, 13.7,  7.9
"2007/03/28", 12.3, 16.1,  9.0
"2007/03/29", 15.8, 22.2,  9.3
"2007/03/30", 12.0, 19.3,  8.4
"2007/03/31", 11.3, 16.7,  6.2
"2007/04/01", 15.9, 19.8, 11.8
"2007/04/02", 12.2, 13.7, 11.1
"2007/04/03",  7.4, 11.9,  5.4
"2007/04/04",  6.9, 10.0,  4.7
"2007/04/05",  8.1, 13.5,  3.2
"2007/04/06",  9.7, 11.6,  6.2
"2007/04/07", 12.1, 15.4,  8.7
"2007/04/08", 12.0, 15.1,  8.5
"2007/04/09", 10.7, 14.1,  8.9
"2007/04/10", 12.4, 16.9,  6.0
"2007/04/11", 10.7, 12.6,  8.1
"2007/04/12", 11.3, 15.6,  7.3
"2007/04/13", 15.3, 19.1, 11.0
"2007/04/14", 16.7, 23.6, 13.0
"2007/04/15", 12.9, 15.0, 10.6
"2007/04/16", 10.2, 11.7,  8.3
"2007/04/17",  8.9, 10.1,  8.0
"2007/04/18",  8.4, 10.3,  6.8
"2007/04/19",  9.1, 11.5,  6.9
"2007/04/20", 12.5, 17.3,  7.5
"2007/04/21", 17.8, 21.0, 14.7
"2007/04/22", 18.2, 21.0, 13.3
"2007/04/23", 11.7, 13.3,  9.9
"2007/04/24", 11.9, 14.7,  9.9
"2007/04/25", 13.8, 15.4, 11.7
"2007/04/26", 15.3, 21.5, 10.6
"2007/04/27", 12.4, 17.1,  8.8
"2007/04/28", 12.5, 18.2,  9.3
"2007/04/29", 14.3, 21.7,  7.1
"2007/04/30", 17.2, 25.9,  9.7
"2007/05/01", 15.3, 18.8, 13.5
"2007/05/02", 18.4, 23.9, 14.1
"2007/05/03", 17.1, 21.8, 13.1
"2007/05/04", 20.5, 27.2, 15.1
"2007/05/05", 21.3, 26.0, 17.8
"2007/05/06", 16.6, 18.5, 14.2
"2007/05/07", 17.6, 21.2, 14.8
"2007/05/08", 18.7, 22.7, 14.9
"2007/05/09", 20.7, 26.3, 16.0
"2007/05/10", 18.9, 25.2, 13.9
"2007/05/11", 16.8, 21.7, 12.2
"2007/05/12", 16.7, 22.6,  9.3
"2007/05/13", 17.4, 19.6, 16.1
"2007/05/14", 17.3, 19.9, 14.5
"2007/05/15", 16.5, 21.2, 12.4
"2007/05/16", 17.1, 21.3, 12.1
"2007/05/17", 17.1, 19.9, 15.2
"2007/05/18", 19.5, 24.2, 13.2
"2007/05/19", 17.4, 21.4, 13.9
"2007/05/20", 17.1, 23.0, 12.5
"2007/05/21", 15.7, 18.8, 10.6
"2007/05/22", 19.4, 24.9, 14.9
"2007/05/23", 20.9, 28.5, 15.7
"2007/05/24", 17.9, 20.3, 15.5
"2007/05/25", 18.0, 20.9, 15.6
"2007/05/26", 21.2, 27.0, 16.9
"2007/05/27", 20.6, 29.2, 14.6
"2007/05/28", 13.4, 14.9, 12.0
"2007/05/29", 16.1, 20.4, 11.6
"2007/05/30", 17.8, 21.0, 16.0
"2007/05/31", 17.5, 20.7, 15.9
"2007/06/01", 16.0, 18.0, 14.1
"2007/06/02", 18.3, 22.2, 14.1
"2007/06/03", 18.7, 22.0, 15.0
"2007/06/04", 18.5, 21.5, 16.0
"2007/06/05", 20.0, 24.4, 16.0
"2007/06/06", 21.3, 25.9, 17.3
"2007/06/07", 20.9, 25.9, 18.3
"2007/06/08", 21.1, 25.1, 18.2
"2007/06/09", 20.8, 24.1, 18.6
"2007/06/10", 18.9, 21.0, 17.3
"2007/06/11", 19.4, 23.3, 17.3
"2007/06/12", 21.7, 27.3, 17.4
"2007/06/13", 22.9, 28.9, 18.7
"2007/06/14", 21.1, 24.5, 17.8
"2007/06/15", 21.2, 27.1, 18.7
"2007/06/16", 21.5, 28.5, 17.2
"2007/06/17", 19.6, 23.4, 17.0
"2007/06/18", 22.3, 26.6, 18.4
"2007/06/19", 23.2, 28.2, 19.3
"2007/06/20", 24.6, 30.2, 20.4
"2007/06/21", 24.2, 29.5, 20.6
"2007/06/22", 22.3, 24.7, 21.0
"2007/06/23", 23.6, 28.5, 20.0
"2007/06/24", 21.2, 23.2, 18.9
"2007/06/25", 20.9, 23.7, 18.9
"2007/06/26", 22.5, 24.9, 20.1
"2007/06/27", 23.5, 26.9, 21.1
"2007/06/28", 24.1, 28.2, 20.8
"2007/06/29", 25.3, 29.3, 23.4
"2007/06/30", 22.2, 24.2, 19.7
"2007/07/01", 22.0, 25.4, 19.3
"2007/07/02", 22.8, 24.1, 21.2
"2007/07/03", 22.3, 25.1, 20.9
"2007/07/04", 20.8, 21.3, 20.2
"2007/07/05", 21.0, 24.0, 19.8
"2007/07/06", 22.5, 26.3, 19.9
"2007/07/07", 21.9, 23.3, 20.6
"2007/07/08", 21.6, 23.6, 20.4
"2007/07/09", 21.6, 24.7, 20.3
"2007/07/10", 22.1, 24.2, 20.7
"2007/07/11", 24.0, 25.7, 21.2
"2007/07/12", 22.7, 26.0, 21.5
"2007/07/13", 22.0, 23.1, 20.8
"2007/07/14", 20.8, 22.7, 20.0
"2007/07/15", 23.2, 25.7, 20.8
"2007/07/16", 21.7, 23.8, 19.8
"2007/07/17", 19.4, 20.7, 17.9
"2007/07/18", 19.9, 21.5, 18.5
"2007/07/19", 20.8, 23.6, 19.3
"2007/07/20", 22.4, 25.8, 19.3
"2007/07/21", 23.5, 25.9, 21.9
"2007/07/22", 23.4, 25.3, 21.9
"2007/07/23", 23.1, 24.4, 22.0
"2007/07/24", 23.7, 27.4, 21.2
"2007/07/25", 23.9, 28.8, 20.6
"2007/07/26", 25.4, 29.5, 22.6
"2007/07/27", 25.7, 28.7, 23.2
"2007/07/28", 27.0, 32.9, 22.2
"2007/07/29", 24.9, 28.5, 22.1
"2007/07/30", 21.3, 22.4, 19.8
"2007/07/31", 22.0, 26.4, 19.8
"2007/08/01", 25.5, 31.2, 20.3
"2007/08/02", 28.1, 32.0, 25.2
"2007/08/03", 27.7, 31.5, 25.0
"2007/08/04", 28.3, 31.9, 25.8
"2007/08/05", 27.9, 33.3, 23.5
"2007/08/06", 27.7, 33.7, 23.0
"2007/08/07", 27.4, 32.0, 22.9
"2007/08/08", 28.1, 32.4, 24.9
"2007/08/09", 28.3, 33.2, 24.6
"2007/08/10", 28.3, 32.5, 24.0
"2007/08/11", 27.6, 31.9, 24.4
"2007/08/12", 27.6, 32.2, 24.2
"2007/08/13", 27.7, 31.5, 24.0
"2007/08/14", 29.2, 34.2, 25.0
"2007/08/15", 29.9, 34.5, 25.5
"2007/08/16", 30.9, 36.1, 27.1
"2007/08/17", 28.3, 31.5, 23.8
"2007/08/18", 23.7, 25.2, 22.7
"2007/08/19", 27.0, 32.5, 22.0
"2007/08/20", 28.0, 31.9, 25.0
"2007/08/21", 28.8, 33.7, 25.7
"2007/08/22", 28.8, 33.7, 22.4
"2007/08/23", 24.3, 28.3, 22.1
"2007/08/24", 25.2, 27.4, 23.7
"2007/08/25", 26.0, 30.0, 23.7
"2007/08/26", 27.3, 32.5, 24.2
"2007/08/27", 27.8, 33.1, 24.2
"2007/08/28", 26.1, 30.8, 22.9
"2007/08/29", 23.4, 25.4, 21.9
"2007/08/30", 23.3, 24.1, 22.7
"2007/08/31", 23.8, 26.4, 21.6
"2007/09/01", 21.3, 22.2, 20.4
"2007/09/02", 21.8, 24.1, 20.5
"2007/09/03", 23.4, 26.9, 21.2
"2007/09/04", 25.0, 28.2, 22.2
"2007/09/05", 26.0, 28.3, 24.4
"2007/09/06", 26.7, 28.0, 25.0
"2007/09/07", 26.2, 29.6, 24.2
"2007/09/08", 27.6, 31.6, 24.1
"2007/09/09", 26.5, 31.7, 23.6
"2007/09/10", 25.9, 30.2, 24.0
"2007/09/11", 23.4, 25.0, 22.3
"2007/09/12", 21.1, 23.0, 18.7
"2007/09/13"," * "," * "," * "
"2007/09/14"," * "," * "," * "
"2007/09/15", 26.1, 31.0, 22.2
"2007/09/16", 27.2, 30.8, 24.3
"2007/09/17", 27.7, 31.1, 23.5
"2007/09/18", 22.5, 24.1, 21.0
"2007/09/19", 23.3, 25.9, 21.1
"2007/09/20", 25.6, 30.8, 22.2
"2007/09/21", 25.6, 31.0, 21.5
"2007/09/22", 25.3, 30.0, 22.5
"2007/09/23", 21.8, 24.2, 20.2
"2007/09/24", 21.5, 22.7, 20.6
"2007/09/25", 23.5, 29.2, 19.3
"2007/09/26", 21.9, 23.5, 20.0
"2007/09/27", 22.4, 25.2, 20.0
"2007/09/28", 24.2, 29.1, 20.0
"2007/09/29", 17.1, 20.1, 14.9
"2007/09/30", 16.9, 17.7, 15.4
"2007/10/01", 17.1, 19.2, 15.5
"2007/10/02", 18.5, 21.7, 16.1
"2007/10/03", 19.3, 20.8, 17.7
"2007/10/04", 20.0, 23.2, 17.8
"2007/10/05", 19.9, 23.0, 18.1
"2007/10/06", 18.3, 21.1, 13.5
"2007/10/07", 17.2, 21.0, 11.9
"2007/10/08", 19.4, 23.2, 16.1
"2007/10/09", 16.5, 19.7, 14.8
"2007/10/10", 17.0, 19.5, 14.5
"2007/10/11", 18.0, 22.4, 14.0
"2007/10/12", 18.6, 21.7, 17.0
"2007/10/13", 16.9, 18.1, 15.3
"2007/10/14", 16.2, 17.5, 14.2
"2007/10/15", 16.4, 18.6, 14.5
"2007/10/16", 15.0, 16.2, 13.5
"2007/10/17", 15.4, 17.9, 13.2
"2007/10/18", 15.0, 17.3, 12.5
"2007/10/19", 15.8, 17.8, 12.8
"2007/10/20", 15.1, 18.7, 12.5
"2007/10/21", 13.8, 18.7,  8.3
"2007/10/22", 14.1, 19.8,  7.4
"2007/10/23", 15.3, 20.8, 11.0
"2007/10/24", 14.3, 17.1, 11.1
"2007/10/25", 14.4, 18.0,  9.2
"2007/10/26", 16.4, 18.5, 15.1
"2007/10/27", 15.5, 17.2, 12.5
"2007/10/28", 15.8, 19.9, 10.7
"2007/10/29", 18.1, 22.2, 14.2
"2007/10/30", 16.1, 18.4, 14.2
"2007/10/31", 14.9, 17.5, 12.6
"2007/11/01", 15.0, 17.8, 12.6
"2007/11/02", 14.0, 15.6, 12.4
"2007/11/03", 13.2, 15.9, 10.3
"2007/11/04", 13.3, 16.9,  8.8
"2007/11/05", 13.9, 16.8, 11.5
"2007/11/06", 13.5, 15.7, 11.5
"2007/11/07", 12.9, 15.5,  9.1
"2007/11/08", 12.8, 16.6,  8.5
"2007/11/09", 13.9, 16.1, 10.6
"2007/11/10", 12.2, 13.6, 11.2
"2007/11/11", 12.5, 14.8, 11.0
"2007/11/12", 12.3, 17.3,  7.1
"2007/11/13", 12.8, 17.3,  9.3
"2007/11/14", 13.3, 18.5, 10.1
"2007/11/15", 12.8, 18.7,  8.1
"2007/11/16",  9.7, 11.2,  7.0
"2007/11/17",  8.4, 11.4,  5.0
"2007/11/18",  8.8, 16.0,  2.6
"2007/11/19",  6.7,  9.4,  2.8
"2007/11/20",  7.1, 10.2,  3.1
"2007/11/21",  7.7, 15.9,  2.3
"2007/11/22",  6.9, 10.9,  3.7
"2007/11/23",  7.1, 10.1,  4.4
"2007/11/24",  7.2, 13.5,  0.5
"2007/11/25",  9.3, 15.4,  1.6
"2007/11/26",  9.1, 14.6,  3.6
"2007/11/27", 10.6, 13.4,  7.7
"2007/11/28",  9.8, 11.2,  8.0
"2007/11/29",  9.2, 10.6,  8.0
"2007/11/30",  9.3, 11.1,  7.7
"2007/12/01", 10.4, 14.6,  6.0
"2007/12/02",  8.9, 13.2,  3.9
"2007/12/03",  8.1, 12.5,  5.0
"2007/12/04",  7.5, 11.2,  4.7
"2007/12/05",  5.8, 11.8,  0.2
"2007/12/06",  7.1, 12.9,  2.7
"2007/12/07",  8.5, 15.1,  1.7
"2007/12/08",  9.3, 11.6,  7.0
"2007/12/09",  8.4, 13.5,  3.3
"2007/12/10",  7.2, 10.9,  3.3
"2007/12/11",  8.8, 12.2,  6.0
"2007/12/12",  8.4, 12.6,  3.2
"2007/12/13",  8.8, 10.1,  7.4
"2007/12/14",  7.8, 12.8,  3.7
"2007/12/15",  6.0, 10.0,  1.3
"2007/12/16",  5.2,  9.9,  1.1
"2007/12/17",  4.4,  8.4, -1.0
"2007/12/18",  5.9, 11.3, -0.8
"2007/12/19",  5.7,  8.1,  2.5
"2007/12/20",  7.0, 11.5,  3.2
"2007/12/21",  6.3, 11.8,  0.2
"2007/12/22",  6.0,  7.4,  4.8
"2007/12/23",  7.4, 12.2,  5.4
"2007/12/24",  8.0, 12.6,  2.6
"2007/12/25",  5.5,  8.7,  0.6
"2007/12/26",  5.7,  8.0,  3.7
"2007/12/27",  5.5,  9.1,  0.0
"2007/12/28",  6.5, 10.7,  0.9
"2007/12/29", 10.1, 13.5,  8.2
"2007/12/30",  7.7, 13.5,  2.8
"2007/12/31",  4.6,  9.7,  0.4
